Regional Weather Roundup
Issued by NWS

Home | Current Version | Previous Version | Graphics & Text | Print | Product List | Glossary On
Versions: 1 2 3 4 5 6 7 8 9 10 11 12 13 14 15 16 17 18 19 20 21 22 23 24 25 26 27 28 29 30 31 32 33 34 35 36 37 38 39 40 41 42 43 44 45 46 47 48 49 50
000
ASUS45 KCYS 171910
RWRWY

WYOMING REGIONAL WEATHER ROUNDUP
NATIONAL WEATHER SERVICE CHEYENNE WY
100 PM MDT FRI APR 17 2015

NOTE:  "FAIR" INDICATES FEW OR NO CLOUDS BELOW 12,000 FEET
WITH NO SIGNIFICANT WEATHER AND/OR OBSTRUCTIONS TO VISIBILITY.

WYZ001-172000-
YELLOWSTONE NATIONAL PARK

CITY           SKY/WX    TMP DP  RH WIND       PRES   REMARKS
LK YELLOWSTONE   N/A     49  14  24 E5        30.22F
W YELLOWSTONE  NOT AVBL

$$
WYZ002>013-054>058-071-098>099-172000-
NORTHERN WYOMING

CITY           SKY/WX    TMP DP  RH WIND       PRES   REMARKS
JACKSON        FAIR      55  12  18 N10       30.13F
CODY           FAIR      54  30  40 N10       30.18F
GREYBULL       FAIR      56  27  32 NW7       30.16F
WORLAND        FAIR      54  29  38 W5        30.17F
SHERIDAN       FAIR      59  30  33 NE7       30.17F
BUFFALO        FAIR      56  31  38 CALM      30.19F
GILLETTE       FAIR      58  33  39 E7        30.16F
HULETT         FAIR      59  32  36 NE8       30.17F
NEWCASTLE      FAIR      52  32  46 CALM      30.16F

$$
WYZ014>020-022>026-101>103-172000-
CENTRAL WYOMING

CITY           SKY/WX    TMP DP  RH WIND       PRES   REMARKS
BIG PINEY      FAIR      57  19  22 E8        30.11F
PINEDALE       FAIR      54  19  26 N18       30.12F
DUBOIS         FAIR      52  21  30 SE13G20   30.17F
LANDER         FAIR      51  32  48 N8        30.16F
RIVERTON       FAIR      53  29  39 NE8       30.17F
CASPER         LGT RAIN  40  35  83 MISG      30.17F
DOUGLAS        LGT RAIN  40  36  86 NE13      30.18F FOG     WCI  32

$$
WYZ021-027>030-104>119-172000-
SOUTHERN WYOMING

CITY           SKY/WX    TMP DP  RH WIND       PRES   REMARKS
EVANSTON       CLOUDY    41  31  67 E9        30.16F
KEMMERER       CLOUDY    45  32  61 NE14G22   30.16F
FORT BRIDGER   CLOUDY    36  36 100 W3        30.19F
ROCK SPRINGS   CLOUDY    38  33  82 NE26G37   30.12F WCI  26
DIXON          MOCLDY    42  35  76 NE18G24   30.04R
RAWLINS        LGT SNOW  33  32  96 N13       30.11S FOG     WCI  24
SARATOGA       CLOUDY    36  32  87 N18       30.08R WCI  25
LARAMIE        FLURRIES  34  30  85 NE30G38   30.01F WCI  20
CHEYENNE       LGT RAIN  36  33  89 N23G31    30.02F WCI  24
TORRINGTON     LGT RAIN  45  42  89 NE23G35   30.06F FOG
PINE BLUFFS    RAIN      45  45 100 NE13      30.01F

$$



USA.gov is the U.S. government's official web portal to all federal, state and local government web resources and services.